GW3371 Weather Reports


time (UTC)temp
C
wind
direction
speed
KPH
gust
KPH
rain 1hr
cm
rain 24hr
cm
rain mn
cm
humidity
%
barometer
mb
20260507080038 8 360 1.6 6.4 0.00 0.56 0.00 89 1008.3
20260507075521 8 0 1.6 6.4 0.00 0.56 0.00 89 1008.1
20260507075021 8 360 1.6 3.2 0.00 0.56 0.00 89 1007.9
20260507074542 8 360 1.6 9.7 0.00 0.56 0.00 89 1008.0
20260507074021 8 0 0.0 9.7 0.00 0.56 0.00 89 1007.9
20260507073523 9 360 1.6 9.7 0.00 0.56 0.00 88 1007.8
20260507073043 9 0 0.0 6.4 0.00 0.56 0.00 89 1007.6
20260507072522 9 360 0.0 6.4 0.00 0.56 0.00 79 1007.5
20260507072021 9 360 0.0 4.8 0.00 0.56 0.00 89 1007.6
20260507071539 9 0 0.0 4.8 0.00 0.56 0.00 89 1007.6
20260507071021 9 0 1.6 14.5 0.00 0.56 0.00 88 1007.8
20260507070521 9 360 1.6 14.5 0.00 0.56 0.00 89 1008.1
20260507070045 9 360 4.8 14.5 0.00 0.56 0.00 89 1007.8
20260507065521 9 360 1.6 6.4 0.00 0.56 0.00 82 1007.6
20260507065022 9 360 1.6 6.4 0.00 0.56 0.00 92 1007.7
20260507064545 9 0 1.6 4.8 0.00 0.56 0.00 93 1007.8
20260507064021 9 360 0.0 4.8 0.00 0.56 0.00 94 1007.4
20260507063522 9 0 0.0 4.8 0.00 0.56 0.00 95 1007.4
20260507063037 9 360 1.6 4.8 0.00 0.56 0.00 94 1007.3
20260507062521 9 360 0.0 4.8 0.00 0.56 0.00 95 1007.3
20260507062021 9 0 1.6 4.8 0.00 0.56 0.00 95 1007.2
20260507061532 9 360 0.0 3.2 0.00 0.56 0.00 96 1007.3
20260507061024 9 0 0.0 3.2 0.00 0.56 0.00 96 1007.3
20260507060521 9 0 0.0 1.6 0.00 0.56 0.00 97 1007.4
20260507060037 9 0 0.0 3.2 0.00 0.56 0.00 96 1007.4
20260507055519 9 0 0.0 3.2 0.00 0.56 0.00 97 1007.6
20260507055022 9 360 1.6 3.2 0.00 0.56 0.00 97 1007.9
20260507054538 9 360 0.0 1.6 0.00 0.56 0.00 96 1007.5
20260507054023 9 0 0.0 1.6 0.00 0.56 0.00 96 1007.6
20260507053521 9 0 0.0 3.2 0.00 0.56 0.00 96 1007.9
20260507053037 9 0 0.0 3.2 0.00 0.56 0.00 96 1008.0
20260507052521 9 0 1.6 3.2 0.00 0.56 0.00 96 1008.0
20260507052021 9 0 0.0 3.2 0.00 0.56 0.00 96 1008.0
20260507051537 9 0 0.0 3.2 0.00 0.56 0.00 95 1008.0
20260507051020 9 0 0.0 3.2 0.00 0.56 0.00 96 1008.1
20260507050521 9 0 0.0 3.2 0.00 0.56 0.00 95 1008.2
20260507050037 9 360 0.0 4.8 0.00 0.56 0.00 96 1008.4
20260507045522 9 0 0.0 4.8 0.00 0.56 0.00 95 1008.3
20260507045021 9 360 0.0 4.8 0.00 0.56 0.00 95 1008.2
20260507044548 9 360 0.0 4.8 0.00 0.56 0.00 95 1008.2
20260507044022 10 360 0.0 4.8 0.00 0.56 0.00 95 1008.3
20260507043521 10 360 1.6 6.4 0.00 0.56 0.00 94 1008.1
20260507043035 10 0 0.0 6.4 0.00 0.56 0.00 94 1008.1
20260507042521 10 360 1.6 6.4 0.00 0.56 0.00 94 1007.9
20260507042026 10 360 1.6 8.0 0.00 0.56 0.00 94 1007.8
20260507041535 10 360 1.6 8.0 0.00 0.56 0.00 94 1007.9
20260507041024 10 360 1.6 8.0 0.00 0.56 0.00 94 1007.7
20260507040523 10 0 1.6 6.4 0.00 0.56 0.00 94 1007.7
20260507040042 10 360 1.6 6.4 0.00 0.56 0.00 93 1007.8
20260507035522 10 360 1.6 6.4 0.00 0.56 0.56 93 1007.7
20260507035022 10 360 1.6 12.9 0.00 0.56 0.56 93 1008.0
20260507034542 10 360 3.2 12.9 0.00 0.56 0.56 93 1007.8
20260507034025 10 360 1.6 8.0 0.00 0.56 0.56 94 1008.1
20260507033521 10 360 3.2 8.0 0.00 0.56 0.56 94 1008.1
20260507033045 10 360 1.6 6.4 0.00 0.56 0.56 95 1008.0
20260507032521 10 360 0.0 6.4 0.00 0.56 0.56 94 1007.9
20260507032024 11 360 1.6 4.8 0.00 0.56 0.56 94 1007.9
20260507031553 11 0 0.0 6.4 0.00 0.56 0.56 94 1007.8
20260507031022 11 360 0.0 6.4 0.00 0.56 0.56 94 1007.7
20260507030522 11 360 0.0 9.7 0.00 0.56 0.56 93 1007.7
20260507030047 11 360 0.0 9.7 0.00 0.56 0.56 93 1007.7
20260507025520 11 360 3.2 9.7 0.00 0.56 0.56 92 1007.6
20260507025025 11 0 1.6 9.7 0.03 0.56 0.56 93 1007.7
20260507024559 11 360 3.2 9.7 0.03 0.56 0.56 93 1007.4
20260507024021 11 360 1.6 8.0 0.03 0.56 0.56 93 1007.4
20260507023521 11 360 1.6 12.9 0.03 0.56 0.56 93 1007.4
20260507023037 11 360 3.2 14.5 0.03 0.56 0.56 93 1007.4
20260507022521 11 360 6.4 14.5 0.03 0.56 0.56 93 1007.5
20260507022021 11 360 4.8 12.9 0.03 0.56 0.56 86 1007.7
20260507021540 11 360 0.0 4.8 0.03 0.56 0.56 97 1007.5
20260507021021 11 0 0.0 3.2 0.03 0.56 0.56 96 1007.4
20260507020521 11 360 0.0 4.8 0.03 0.56 0.56 96 1007.4
20260507020036 11 0 0.0 9.7 0.03 0.56 0.56 95 1007.3
20260507015521 12 360 3.2 9.7 0.03 0.56 0.56 94 1007.3
20260507015021 12 360 3.2 16.1 0.00 0.53 0.53 93 1007.1
20260507014547 12 360 6.4 16.1 0.00 0.53 0.53 93 1007.3
20260507014021 12 360 6.4 16.1 0.00 0.53 0.53 94 1007.2
20260507013518 12 360 4.8 12.9 0.00 0.53 0.53 94 1007.0
20260507013040 12 360 4.8 12.9 0.00 0.53 0.53 95 1006.7
20260507012523 12 360 1.6 14.5 0.00 0.53 0.53 94 1006.4
20260507012021 12 360 4.8 14.5 0.03 0.53 0.53 94 1006.3
20260507011544 13 360 1.6 8.0 0.05 0.53 0.53 96 1006.0
20260507011023 13 360 3.2 9.7 0.08 0.53 0.53 96 1006.1
20260507010521 13 360 1.6 12.9 0.15 0.53 0.53 96 1006.1
20260507010041 13 360 1.6 12.9 0.15 0.53 0.53 96 1006.0
20260507005523 13 360 3.2 8.0 0.18 0.53 0.53 97 1005.9
20260507005027 13 360 0.0 9.7 0.18 0.53 0.53 96 1005.8
20260507004536 13 360 3.2 9.7 0.18 0.53 0.53 97 1005.9
20260507004021 13 360 1.6 8.0 0.18 0.53 0.53 97 1005.8
20260507003520 13 360 1.6 6.4 0.18 0.53 0.53 99 1005.7
20260507003034 14 360 1.6 8.0 0.18 0.53 0.53 99 1005.6
20260507002521 14 360 3.2 9.7 0.15 0.51 0.51 99 1005.7
20260507002021 14 0 1.6 9.7 0.15 0.51 0.51 100 1005.6
20260507001538 14 360 3.2 8.0 0.13 0.48 0.48 100 1005.4
20260507001020 14 360 3.2 8.0 0.08 0.43 0.43 99 1005.3
20260507000520 14 360 0.0 9.7 0.03 0.38 0.38 99 1004.9
20260507000036 14 360 1.6 9.7 0.03 0.38 0.38 99 1004.8
20260506235522 14 360 1.6 16.1 0.00 0.41 0.36 99 1004.7
20260506235021 14 0 3.2 16.1 0.00 0.41 0.36 99 1004.6
20260506234545 14 360 1.6 9.7 0.00 0.41 0.36 99 1004.6
20260506234021 14 360 0.0 9.7 0.00 0.41 0.36 99 1004.6
20260506233522 14 360 3.2 9.7 0.00 0.41 0.36 99 1004.6
20260506233046 14 360 1.6 8.0 0.00 0.41 0.36 99 1004.6
20260506232521 14 0 0.0 8.0 0.00 0.41 0.36 99 1004.7
20260506232021 14 360 1.6 8.0 0.00 0.41 0.36 99 1004.6
20260506231536 14 360 1.6 6.4 0.00 0.41 0.36 99 1004.5
20260506231022 14 360 0.0 6.4 0.00 0.41 0.36 99 1004.5
20260506230521 14 360 0.0 8.0 0.00 0.41 0.36 99 1004.5
20260506230035 14 360 3.2 8.0 0.00 0.41 0.36 99 1004.4
20260506225521 14 360 1.6 12.9 0.00 0.41 0.36 99 1004.5
20260506225025 14 0 0.0 12.9 0.00 0.41 0.36 99 1004.5
20260506224540 14 360 3.2 9.7 0.00 0.41 0.36 99 1004.6
20260506224021 14 360 1.6 12.9 0.00 0.41 0.36 99 1004.5
20260506223522 14 360 1.6 12.9 0.00 0.41 0.36 99 1004.6
20260506223035 14 360 3.2 12.9 0.00 0.41 0.36 99 1004.5
20260506222522 14 0 1.6 8.0 0.00 0.41 0.36 99 1004.5
20260506222022 14 0 1.6 19.3 0.00 0.41 0.36 99 1004.5
20260506221538 14 360 4.8 19.3 0.00 0.41 0.36 99 1004.5
20260506221022 14 360 3.2 14.5 0.00 0.41 0.36 99 1004.6
20260506220521 14 360 1.6 12.9 0.00 0.41 0.36 99 1004.6
20260506220037 14 360 3.2 12.9 0.00 0.41 0.36 99 1004.5
20260506215521 14 360 1.6 9.7 0.00 0.41 0.36 99 1004.6
20260506215021 14 360 1.6 9.7 0.00 0.41 0.36 99 1004.5
20260506214537 14 360 0.0 9.7 0.00 0.41 0.36 99 1004.5
20260506214025 14 360 3.2 14.5 0.00 0.41 0.36 99 1004.5
20260506213522 14 360 3.2 14.5 0.00 0.41 0.36 99 1004.5
20260506213038 14 360 1.6 8.0 0.00 0.41 0.36 99 1004.5
20260506212521 14 360 1.6 12.9 0.00 0.41 0.36 98 1004.5
20260506212023 14 360 1.6 12.9 0.00 0.41 0.36 99 1004.6
20260506211532 14 360 4.8 14.5 0.00 0.41 0.36 98 1004.5
20260506211021 14 360 1.6 14.5 0.00 0.41 0.36 98 1004.5
20260506210521 14 360 3.2 14.5 0.00 0.41 0.36 98 1004.6
20260506210038 15 360 1.6 16.1 0.00 0.41 0.36 98 1004.5
20260506205521 15 360 1.6 16.1 0.00 0.41 0.36 98 1004.5
20260506205021 15 360 3.2 16.1 0.00 0.41 0.36 98 1004.6
20260506204540 15 360 4.8 14.5 0.00 0.41 0.36 98 1004.5
20260506204017 15 360 1.6 17.7 0.00 0.41 0.36 98 1004.5
20260506203517 15 360 6.4 17.7 0.00 0.41 0.36 98 1004.6
20260506203040 15 360 3.2 12.9 0.00 0.41 0.36 98 1004.7
20260506202521 15 360 1.6 14.5 0.03 0.41 0.36 98 1004.8
20260506202021 15 360 1.6 16.1 0.03 0.41 0.36 99 1004.9
20260506201539 15 360 3.2 16.1 0.05 0.41 0.36 98 1004.8
20260506201021 15 360 3.2 14.5 0.05 0.41 0.36 98 1005.0
20260506200521 15 360 1.6 8.0 0.05 0.41 0.36 99 1005.0
20260506200040 15 360 1.6 19.3 0.05 0.41 0.36 99 1005.1
20260506195525 15 360 4.8 19.3 0.05 0.41 0.36 98 1005.2
20260506195021 15 360 3.2 16.1 0.08 0.41 0.36 98 1005.3
20260506194536 15 360 3.2 20.9 0.08 0.41 0.36 98 1005.4
20260506194020 15 360 4.8 20.9 0.08 0.41 0.36 98 1005.4
20260506193520 15 360 4.8 17.7 0.08 0.41 0.36 98 1005.4
20260506193033 15 360 4.8 17.7 0.08 0.41 0.36 98 1005.4
20260506192521 15 360 0.0 17.7 0.08 0.38 0.33 98 1005.5
20260506192024 15 360 4.8 17.7 0.05 0.36 0.30 97 1005.6
20260506191539 15 360 1.6 12.9 0.05 0.36 0.30 98 1005.6
20260506191018 15 360 4.8 12.9 0.08 0.36 0.30 97 1005.4
20260506190521 15 360 3.2 12.9 0.08 0.36 0.30 97 1005.5
20260506190039 15 360 1.6 9.7 0.08 0.36 0.30 97 1005.4
20260506185518 15 0 3.2 12.9 0.08 0.36 0.30 97 1005.5
20260506185018 15 360 1.6 19.3 0.08 0.33 0.28 97 1005.6
20260506184545 15 360 6.4 19.3 0.08 0.33 0.28 96 1005.5
20260506184020 16 360 1.6 9.7 0.10 0.33 0.28 96 1005.6
20260506183520 16 360 1.6 12.9 0.13 0.33 0.28 97 1005.6
20260506183034 16 360 0.0 12.9 0.18 0.33 0.28 96 1005.8
20260506182518 16 360 0.0 9.7 0.18 0.30 0.25 96 1005.8
20260506182018 16 360 3.2 9.7 0.20 0.30 0.25 96 1005.8
20260506181538 16 360 1.6 6.4 0.23 0.30 0.25 96 1005.7
20260506181018 16 360 1.6 6.4 0.20 0.28 0.23 96 1005.6
20260506180518 16 360 0.0 3.2 0.20 0.28 0.23 97 1005.7
20260506180038 16 0 1.6 3.2 0.23 0.28 0.23 96 1005.8
20260506175517 16 0 0.0 3.2 0.23 0.28 0.23 96 1005.9
20260506175021 16 0 0.0 3.2 0.20 0.25 0.20 96 1006.0
20260506174537 16 0 0.0 3.2 0.20 0.25 0.20 95 1006.0
20260506174021 16 0 0.0 1.6 0.18 0.23 0.18 95 1006.1
20260506173521 16 0 0.0 1.6 0.15 0.20 0.15 95 1006.2
20260506173055 16 0 0.0 1.6 0.10 0.15 0.10 94 1006.5
20260506172518 16 360 0.0 3.2 0.08 0.13 0.08 94 1006.5
20260506172018 16 0 0.0 6.4 0.05 0.10 0.05 93 1006.6
20260506171537 16 0 0.0 6.4 0.03 0.08 0.03 92 1006.7
20260506171018 16 0 1.6 6.4 0.03 0.08 0.03 91 1006.8
20260506170518 16 360 0.0 3.2 0.00 0.05 0.00 90 1006.8
20260506170040 17 0 0.0 6.4 0.00 0.05 0.00 89 1006.8
20260506165518 17 0 0.0 14.5 0.00 0.05 0.00 89 1006.8
20260506165018 17 0 1.6 14.5 0.00 0.05 0.00 88 1006.8
20260506164535 17 360 3.2 14.5 0.00 0.05 0.00 87 1006.7
20260506164019 17 360 1.6 12.9 0.00 0.05 0.00 87 1006.8
20260506163521 17 360 3.2 17.7 0.00 0.05 0.00 86 1006.8
20260506163036 17 360 4.8 17.7 0.00 0.05 0.00 85 1006.9
20260506162521 17 360 1.6 14.5 0.00 0.05 0.00 86 1006.8
20260506162020 17 360 1.6 17.7 0.00 0.05 0.00 85 1006.8
20260506161535 17 360 4.8 19.3 0.00 0.05 0.00 85 1006.9
20260506161018 17 360 1.6 19.3 0.00 0.05 0.00 84 1007.0
20260506160518 17 360 4.8 19.3 0.00 0.05 0.00 75 1007.0
20260506160038 17 360 3.2 12.9 0.00 0.05 0.00 84 1007.0
20260506155518 17 0 0.0 16.1 0.00 0.05 0.00 84 1007.1
20260506155018 17 360 4.8 16.1 0.00 0.05 0.00 84 1007.3
20260506154537 17 360 1.6 9.7 0.00 0.05 0.00 85 1007.3
20260506154019 17 360 1.6 9.7 0.00 0.05 0.00 85 1007.4
20260506153517 17 0 1.6 17.7 0.00 0.05 0.00 85 1007.4
20260506153032 17 360 1.6 17.7 0.00 0.05 0.00 84 1007.5
20260506152518 17 360 4.8 17.7 0.00 0.05 0.00 85 1007.7
20260506152018 17 0 3.2 14.5 0.00 0.05 0.00 85 1007.8
20260506151532 17 360 3.2 14.5 0.00 0.05 0.00 85 1007.9
20260506151021 17 360 1.6 17.7 0.00 0.05 0.00 85 1007.9
20260506150518 16 360 1.6 17.7 0.00 0.05 0.00 85 1007.8
20260506150042 16 360 4.8 20.9 0.00 0.05 0.00 85 1007.7
20260506145518 16 360 6.4 20.9 0.00 0.05 0.00 85 1007.8
20260506145017 16 360 1.6 9.7 0.00 0.05 0.00 85 1007.9
20260506144539 16 360 1.6 16.1 0.00 0.05 0.00 86 1007.9
20260506144018 16 360 4.8 16.1 0.00 0.05 0.00 85 1007.9
20260506143519 16 360 1.6 12.9 0.00 0.05 0.00 85 1008.0
20260506143040 16 360 1.6 17.7 0.00 0.05 0.00 85 1008.1
20260506142520 16 360 4.8 17.7 0.00 0.05 0.00 85 1008.0
20260506142019 16 360 6.4 17.7 0.00 0.05 0.00 85 1007.7
20260506141534 16 0 4.8 19.3 0.00 0.05 0.00 86 1007.7
20260506141020 16 360 6.4 19.3 0.00 0.05 0.00 85 1007.9
20260506140518 16 360 4.8 20.9 0.00 0.05 0.00 86 1008.1
20260506140033 16 360 6.4 20.9 0.00 0.05 0.00 86 1007.9
20260506135517 16 360 3.2 16.1 0.00 0.05 0.00 86 1007.7
20260506135017 16 360 3.2 9.7 0.00 0.05 0.00 87 1007.7
20260506134535 16 360 3.2 9.7 0.00 0.05 0.00 87 1007.7
20260506134018 16 360 3.2 9.7 0.00 0.05 0.00 87 1007.7
20260506133520 16 360 3.2 12.9 0.00 0.05 0.00 88 1007.7
20260506133034 16 360 3.2 12.9 0.00 0.05 0.00 88 1007.7
20260506132524 16 360 3.2 12.9 0.00 0.05 0.00 88 1007.5
20260506132018 15 360 1.6 9.7 0.00 0.05 0.00 88 1007.6
20260506131545 15 360 3.2 9.7 0.00 0.05 0.00 88 1007.7
20260506131018 15 360 1.6 6.4 0.00 0.05 0.00 79 1007.8
20260506130517 15 360 0.0 4.8 0.00 0.05 0.00 89 1007.8
20260506130053 15 360 0.0 4.8 0.00 0.05 0.00 89 1008.1
20260506125521 15 360 1.6 4.8 0.00 0.05 0.00 90 1008.2
20260506125019 15 0 0.0 6.4 0.00 0.05 0.00 90 1008.1
20260506124535 15 360 1.6 6.4 0.00 0.05 0.00 90 1008.3
20260506124016 15 360 1.6 19.3 0.00 0.05 0.00 90 1008.5
20260506123516 15 0 3.2 19.3 0.00 0.05 0.00 90 1008.4
20260506123037 14 360 3.2 12.9 0.00 0.05 0.00 90 1008.5
20260506122516 14 360 4.8 12.9 0.00 0.05 0.00 90 1008.5
20260506122016 14 360 3.2 12.9 0.00 0.05 0.00 90 1008.5
20260506121534 14 360 1.6 12.9 0.00 0.05 0.00 90 1008.5
20260506121016 14 0 3.2 9.7 0.00 0.05 0.00 90 1008.7
20260506120517 14 360 3.2 16.1 0.00 0.05 0.00 91 1008.6
20260506120034 14 360 3.2 16.1 0.00 0.05 0.00 91 1008.5
20260506115519 14 360 3.2 14.5 0.00 0.05 0.00 91 1008.2
20260506115017 14 360 1.6 9.7 0.00 0.05 0.00 91 1008.4
20260506114535 14 360 0.0 8.0 0.00 0.05 0.00 91 1008.4
20260506114016 14 360 1.6 8.0 0.00 0.05 0.00 91 1008.5
20260506113516 14 360 0.0 4.8 0.00 0.05 0.00 91 1008.2
20260506113040 14 360 1.6 16.1 0.00 0.05 0.00 91 1008.5
20260506112516 14 360 3.2 16.1 0.00 0.05 0.00 91 1008.6
20260506112016 14 360 0.0 17.7 0.00 0.05 0.00 91 1008.5
20260506111532 14 0 0.0 17.7 0.00 0.05 0.00 91 1008.6
20260506111017 13 360 3.2 14.5 0.00 0.05 0.00 91 1008.5
20260506110517 13 0 3.2 14.5 0.00 0.05 0.00 91 1008.7
20260506110043 13 360 1.6 14.5 0.00 0.05 0.00 91 1008.7
20260506105516 13 360 3.2 14.5 0.00 0.05 0.00 91 1008.6
20260506105019 13 360 0.0 8.0 0.00 0.05 0.00 91 1008.6
20260506104538 13 0 3.2 8.0 0.00 0.05 0.00 91 1008.8
20260506104017 13 0 0.0 14.5 0.00 0.05 0.00 91 1008.6
20260506103521 13 360 1.6 14.5 0.00 0.05 0.00 92 1008.6
20260506103045 13 360 3.2 14.5 0.00 0.05 0.00 92 1008.7
20260506102521 13 360 3.2 9.7 0.00 0.05 0.00 92 1008.6
20260506102021 13 0 0.0 8.0 0.00 0.05 0.00 93 1008.4
20260506101548 13 360 0.0 6.4 0.00 0.05 0.00 93 1008.4
20260506101021 13 0 1.6 6.4 0.00 0.05 0.00 93 1008.4
20260506100521 13 360 0.0 4.8 0.00 0.05 0.00 93 1008.4
20260506100048 13 360 0.0 4.8 0.00 0.05 0.00 93 1008.4
20260506095521 13 0 0.0 8.0 0.00 0.05 0.00 93 1008.2
20260506095024 13 0 1.6 8.0 0.00 0.05 0.00 93 1008.3
20260506094536 13 0 0.0 4.8 0.00 0.05 0.00 93 1008.1
20260506094022 13 360 0.0 4.8 0.00 0.05 0.00 92 1008.1
20260506093517 13 360 0.0 4.8 0.00 0.05 0.00 92 1008.2
20260506093043 13 360 0.0 3.2 0.00 0.05 0.00 92 1008.2
20260506092519 13 0 0.0 3.2 0.00 0.05 0.00 92 1008.4
20260506092019 13 0 0.0 1.6 0.00 0.05 0.00 92 1008.3
20260506091539 13 0 0.0 6.4 0.00 0.05 0.00 91 1008.2
20260506091019 13 0 0.0 6.4 0.00 0.05 0.00 91 1008.3
20260506090518 13 0 0.0 6.4 0.00 0.05 0.00 91 1008.3
20260506090034 13 0 0.0 6.4 0.00 0.05 0.00 91 1008.3
20260506085518 13 360 0.0 4.8 0.00 0.05 0.00 92 1008.3
20260506085018 13 360 0.0 3.2 0.00 0.05 0.00 92 1008.2
20260506084549 13 0 0.0 3.2 0.00 0.05 0.00 92 1008.3
20260506084018 13 0 0.0 3.2 0.00 0.05 0.00 92 1008.5
20260506083518 13 360 0.0 4.8 0.00 0.05 0.00 92 1008.4
20260506083041 13 0 1.6 4.8 0.00 0.05 0.00 92 1008.5
20260506082521 13 0 0.0 3.2 0.00 0.05 0.00 92 1008.4
20260506082017 12 0 0.0 6.4 0.00 0.05 0.00 92 1008.4
20260506081545 12 0 0.0 6.4 0.00 0.05 0.00 92 1008.3
20260506081017 12 360 0.0 3.2 0.00 0.05 0.00 92 1008.3
20260506080520 12 0 0.0 1.6 0.00 0.05 0.00 91 1008.3